Showing default

PRATHAM, 41783

Orbit data source: Space-Track

PRATHAM, 41783 is a payload satellite owned by IITB (IN) in SSO that was launched on Mon, 26 Sep 2016 UTC via a PSLV launch vehicle from the Sirharikota (SRI). Payloads include a variety of satellites, spacecraft, and rockets equipped with specific instruments for various scientific and technological missions. These include communications satellites like Starlink; space stations such as the ISS; scientific satellites like the Hubble; Earth observation satellites from companies like Planet Labs, Umbra, and HawkEye 360; GPS; miniature CubeSats for education and research; and military/defense satellites.

Loading next visibility...
PRATHAM details
Identifier
41783, 2016-059A
Orbit
SSO
Last TLE update9 hours ago
Origin
Flag of INIITB (IN / IND)
ManufacturerIITB
MissionNon-operational Amateur Science
Bus & MotorPRATHAM, Unknown motor
Mass10 kg wet, 10 kg dry
Launch date (UTC)
2016-09-26 (8 years ago)
Launch vehicle
PSLV
Launch site
Sirharikota (SRI)
Object type
Payload
Rocket body
Debris
Shape & HBRBox, 0.466 m
Radar Cross Section0.251 m², Small (<0.1 m²)

Expand to show TLE details & history

TLE from 9 hours ago
0 PRATHAM
1 41783U 16059A   24361.49015188  .00002153  00000-0  39981-3 0  9990
2 41783  97.8286  11.8306 0033128 128.4640 231.9545 14.65815043440707
Epoch: 2024-12-26T11:45Z
Definitive object data (Epoch: 2024-12-26T11:45:49.122Z)
Latitude-0.00001°
Longitude99.90713°
Altitude691.914 km
Speed7.503 km/s
True Right ascension00h 47m 19s
True Declination0° 00' 00"
Sunlit
Object was in daylight at TLE epoch
Visualization TLE readout
Latitude14.8347°
Longitude-77.6622°
Altitude658.229 km
Speed7.539 km/s
Apparent Right ascension10h 58m 31s
Apparent Declination-13° 31' 47"
Sunlit
Object is in daylight
Visualization observer readout
Local Sidereal Time20:05:03
Azimuth292.322° WNW
Elevation-43.807°
Doppler factor1
Orbital elements
Apogee altitude694.871 km
Perigee altitude648.162 km
Semi-major axis7,049.653 km
Eccentricity0.0033128
Inclination97.8286°
RAAN11.8306°
Arg. of periapsis128.464°
True anomaly231.6563°
Mean anomaly231.9545°
Eccentric anomaly231.80533°
Mean motion3.66684 °/min
BSTAR0.00039981
Orbital period98.18 mins
Loading maneuver chart data...
Loading historical data...
Loading historical data...
Loading historical data...
Loading historical data...
Loading historical data...
Loading historical data...
Loading historical data...

PRATHAM Visibility forecast

Observer location: undefined°, undefined

Span
Click to sort rows by Start time (UTC) header in descending order
Start Az.
Max El. time (UTC)
Max El. Az.
Max El.
End time (UTC)
End Az.
8 mins2024-12-27 00:59:11.000Z169.506° S2024-12-27 01:03:11.000Z261.109° W44.769°2024-12-27 01:07:11.000Z345.523° N
6 mins2024-12-27 12:56:11.000Z51.446° ENE2024-12-27 12:59:11.000Z104.645° ESE21.43°2024-12-27 13:02:11.000Z147.45° SSE
6 mins2024-12-27 14:33:11.000Z341.628° N2024-12-27 14:36:11.000Z283.301° WNW26.57°2024-12-27 14:39:11.000Z233.938° WSW
|